Year,Month,Day,Hour,Minute,Value (Times are PST for temperature in C)
2016,06,28,10,25,20.80
2016,06,28,10,26,20.90
2016,06,28,10,27,20.80
2016,06,28,10,28,20.80
2016,06,28,10,29,20.60
2016,06,28,10,30,20.60
2016,06,28,10,31,20.60
2016,06,28,10,32,20.50
2016,06,28,10,33,20.40
2016,06,28,10,34,20.30
2016,06,28,10,35,20.40
2016,06,28,10,36,20.50
2016,06,28,10,37,20.50
2016,06,28,10,38,20.50
2016,06,28,10,39,20.50
2016,06,28,10,40,20.50
2016,06,28,10,41,20.50
2016,06,28,10,42,20.50
2016,06,28,10,43,20.50
2016,06,28,10,44,20.60
2016,06,28,10,45,20.70
2016,06,28,10,46,20.70
2016,06,28,10,47,20.60
2016,06,28,10,48,20.50
2016,06,28,10,49,20.40
2016,06,28,10,50,20.30
2016,06,28,10,51,20.20
2016,06,28,10,52,20.30
2016,06,28,10,53,20.50
2016,06,28,10,54,20.50
2016,06,28,10,55,20.50
2016,06,28,10,56,20.50
2016,06,28,10,57,20.60
2016,06,28,10,58,20.70
2016,06,28,10,59,20.90
2016,06,28,11,00,21.00
2016,06,28,11,01,21.10
2016,06,28,11,02,21.20
2016,06,28,11,03,21.30
2016,06,28,11,04,21.30
2016,06,28,11,05,21.20
2016,06,28,11,06,20.90
2016,06,28,11,07,20.90
2016,06,28,11,08,20.90
2016,06,28,11,09,21.00
2016,06,28,11,10,21.10
2016,06,28,11,11,21.00
2016,06,28,11,12,21.00
2016,06,28,11,13,20.90
2016,06,28,11,14,21.00
2016,06,28,11,15,21.00
2016,06,28,11,16,21.00
2016,06,28,11,17,21.00
2016,06,28,11,18,21.10
2016,06,28,11,19,21.10
2016,06,28,11,20,21.30
2016,06,28,11,21,21.30
2016,06,28,11,22,21.40
2016,06,28,11,23,21.40
2016,06,28,11,24,21.30
2016,06,28,11,25,21.10
2016,06,28,11,26,21.00
2016,06,28,11,27,20.90
2016,06,28,11,28,20.80
2016,06,28,11,29,20.80
2016,06,28,11,30,20.90
2016,06,28,11,31,20.90
2016,06,28,11,32,20.90
2016,06,28,11,33,20.90
2016,06,28,11,34,20.90
2016,06,28,11,35,21.00
2016,06,28,11,36,21.10
2016,06,28,11,37,21.20
2016,06,28,11,38,21.30
2016,06,28,11,39,21.40
2016,06,28,11,40,21.40
2016,06,28,11,41,21.30
2016,06,28,11,42,21.30
2016,06,28,11,43,21.20
2016,06,28,11,44,20.90
2016,06,28,11,45,20.60
2016,06,28,11,46,20.40
2016,06,28,11,47,20.40
2016,06,28,11,48,20.50
2016,06,28,11,49,20.60
2016,06,28,11,50,20.70
2016,06,28,11,51,20.70
2016,06,28,11,52,20.80
2016,06,28,11,53,20.90
2016,06,28,11,54,21.00
2016,06,28,11,55,21.20
2016,06,28,11,56,21.30
2016,06,28,11,57,21.50
2016,06,28,11,58,21.60
2016,06,28,11,59,21.60
2016,06,28,12,00,21.60
2016,06,28,12,01,21.60
2016,06,28,12,02,21.60
2016,06,28,12,03,21.60
2016,06,28,12,04,21.60
2016,06,28,12,05,21.60
2016,06,28,12,06,21.60
2016,06,28,12,07,21.60
2016,06,28,12,08,21.60
2016,06,28,12,09,21.60
2016,06,28,12,10,21.70
2016,06,28,12,11,21.70
2016,06,28,12,12,21.80
2016,06,28,12,13,21.90
2016,06,28,12,14,21.90
2016,06,28,12,15,21.90
2016,06,28,12,16,21.90
2016,06,28,12,17,21.90
2016,06,28,12,18,22.00
2016,06,28,12,19,22.10
2016,06,28,12,20,22.20
2016,06,28,12,21,22.20
2016,06,28,12,22,22.20
2016,06,28,12,23,22.20
2016,06,28,12,24,22.20
2016,06,28,12,25,22.30
2016,06,28,12,26,22.30
2016,06,28,12,27,22.50
2016,06,28,12,28,22.30
2016,06,28,12,29,22.20
2016,06,28,12,30,22.10
2016,06,28,12,31,22.20
2016,06,28,12,32,22.10
2016,06,28,12,33,22.20
2016,06,28,12,34,22.10
2016,06,28,12,35,22.00
2016,06,28,12,36,21.90
2016,06,28,12,37,21.90
2016,06,28,12,38,21.90
2016,06,28,12,39,22.00
2016,06,28,12,40,22.00
2016,06,28,12,41,22.10
2016,06,28,12,42,22.10
2016,06,28,12,43,22.00
2016,06,28,12,44,21.90
2016,06,28,12,45,21.90
2016,06,28,12,46,21.70
2016,06,28,12,47,21.70
2016,06,28,12,48,21.70
2016,06,28,12,49,21.60
2016,06,28,12,50,21.40
2016,06,28,12,51,21.30
2016,06,28,12,52,21.20
2016,06,28,12,53,21.20
2016,06,28,12,54,21.30
2016,06,28,12,55,21.40
2016,06,28,12,56,21.60
2016,06,28,12,57,21.60
2016,06,28,12,58,21.60
2016,06,28,12,59,21.70
2016,06,28,13,00,21.90
2016,06,28,13,01,22.00
2016,06,28,13,02,22.00
2016,06,28,13,03,21.90
2016,06,28,13,04,22.00
2016,06,28,13,05,22.10
2016,06,28,13,06,22.10
2016,06,28,13,07,22.00
2016,06,28,13,08,21.90
2016,06,28,13,09,21.90
2016,06,28,13,10,21.90
2016,06,28,13,11,22.00
2016,06,28,13,12,22.10
2016,06,28,13,13,22.20
2016,06,28,13,14,22.30
2016,06,28,13,15,22.40
2016,06,28,13,16,22.50
2016,06,28,13,17,22.50
2016,06,28,13,18,22.50
2016,06,28,13,19,22.50
2016,06,28,13,20,22.70
2016,06,28,13,21,22.70
2016,06,28,13,22,22.70
2016,06,28,13,23,22.60
2016,06,28,13,24,22.40
2016,06,28,13,25,22.30
2016,06,28,13,26,22.20
2016,06,28,13,27,22.20
2016,06,28,13,28,22.20
2016,06,28,13,29,22.10
2016,06,28,13,30,22.00
2016,06,28,13,31,21.90
2016,06,28,13,32,21.90
2016,06,28,13,33,22.00
2016,06,28,13,34,22.10
2016,06,28,13,35,22.30
2016,06,28,13,36,22.30
2016,06,28,13,37,22.30
2016,06,28,13,38,22.40
2016,06,28,13,39,22.40
2016,06,28,13,40,22.50
2016,06,28,13,41,22.50
2016,06,28,13,42,22.50
2016,06,28,13,43,22.40
2016,06,28,13,44,22.40
2016,06,28,13,45,22.40
2016,06,28,13,46,22.30
2016,06,28,13,47,22.30
2016,06,28,13,48,22.30
2016,06,28,13,49,22.40
2016,06,28,13,50,22.40
2016,06,28,13,51,22.40
2016,06,28,13,52,22.30
2016,06,28,13,53,22.20
2016,06,28,13,54,22.20
2016,06,28,13,55,22.20
2016,06,28,13,56,22.30
2016,06,28,13,57,22.50
2016,06,28,13,58,22.60
2016,06,28,13,59,22.50
2016,06,28,14,00,22.40
2016,06,28,14,01,22.40
2016,06,28,14,02,22.30
2016,06,28,14,03,22.40
2016,06,28,14,04,22.50
2016,06,28,14,05,22.70
2016,06,28,14,06,22.90
2016,06,28,14,07,23.20
2016,06,28,14,08,23.30
2016,06,28,14,09,23.50
2016,06,28,14,10,23.60
2016,06,28,14,11,23.40
2016,06,28,14,12,23.30
2016,06,28,14,13,23.30
2016,06,28,14,14,23.30
2016,06,28,14,15,23.10
2016,06,28,14,16,23.10
2016,06,28,14,17,23.10
2016,06,28,14,18,23.20
2016,06,28,14,19,23.20
2016,06,28,14,20,23.10
2016,06,28,14,21,23.10
2016,06,28,14,22,23.10
2016,06,28,14,23,23.10
2016,06,28,14,24,22.90
2016,06,28,14,25,22.90
2016,06,28,14,26,22.70
2016,06,28,14,27,22.80
2016,06,28,14,28,22.70
2016,06,28,14,29,22.70
2016,06,28,14,30,22.70
2016,06,28,14,31,22.70
2016,06,28,14,32,22.70
2016,06,28,14,33,22.70
2016,06,28,14,34,22.80
2016,06,28,14,35,22.90
2016,06,28,14,36,23.10
2016,06,28,14,37,23.30
2016,06,28,14,38,23.30
2016,06,28,14,39,23.30
2016,06,28,14,40,23.30
2016,06,28,14,41,23.30
2016,06,28,14,42,23.40
2016,06,28,14,43,23.40
2016,06,28,14,44,23.40
2016,06,28,14,45,23.50
2016,06,28,14,46,23.70
2016,06,28,14,47,23.80
2016,06,28,14,48,23.80
2016,06,28,14,49,24.00
2016,06,28,14,50,24.10
2016,06,28,14,51,24.30
2016,06,28,14,52,24.50
2016,06,28,14,53,24.70
2016,06,28,14,54,24.70
2016,06,28,14,55,24.80
2016,06,28,14,56,24.80
2016,06,28,14,57,24.90
2016,06,28,14,58,25.00
2016,06,28,14,59,25.10
2016,06,28,15,00,25.20
2016,06,28,15,01,25.30
2016,06,28,15,02,25.50
2016,06,28,15,03,25.50
2016,06,28,15,04,25.50
2016,06,28,15,05,25.50
2016,06,28,15,06,25.50
2016,06,28,15,07,25.50
2016,06,28,15,08,25.40
2016,06,28,15,09,25.40
2016,06,28,15,10,25.30
2016,06,28,15,11,25.30
2016,06,28,15,12,25.30
2016,06,28,15,13,25.30
2016,06,28,15,14,25.40
2016,06,28,15,15,25.30
2016,06,28,15,16,25.30
2016,06,28,15,17,25.10
2016,06,28,15,18,25.00
2016,06,28,15,19,24.90
2016,06,28,15,20,24.90
2016,06,28,15,21,24.80
2016,06,28,15,22,24.70
2016,06,28,15,23,24.80
2016,06,28,15,24,24.80
2016,06,28,15,25,24.90
2016,06,28,15,26,24.90
2016,06,28,15,27,24.90
2016,06,28,15,28,24.90
2016,06,28,15,29,24.90
2016,06,28,15,30,24.90
2016,06,28,15,31,25.00
2016,06,28,15,32,25.10
2016,06,28,15,33,25.10
2016,06,28,15,34,24.90
2016,06,28,15,35,24.90
2016,06,28,15,36,25.00
2016,06,28,15,37,25.10
2016,06,28,15,38,25.30
2016,06,28,15,39,25.30
2016,06,28,15,40,25.20
2016,06,28,15,41,25.20
2016,06,28,15,42,25.30
2016,06,28,15,43,25.40
2016,06,28,15,44,25.50
2016,06,28,15,45,25.50
2016,06,28,15,46,25.50
2016,06,28,15,47,25.40
2016,06,28,15,48,25.40
2016,06,28,15,49,25.40
2016,06,28,15,50,25.40
2016,06,28,15,51,25.50
2016,06,28,15,52,25.70
2016,06,28,15,53,25.80
2016,06,28,15,54,25.80
2016,06,28,15,55,25.60
2016,06,28,15,56,25.60
2016,06,28,15,57,25.50
2016,06,28,15,58,25.50
2016,06,28,15,59,25.60
2016,06,28,16,00,25.50
2016,06,28,16,01,25.50
2016,06,28,16,02,25.50
2016,06,28,16,03,25.50
2016,06,28,16,04,25.60
2016,06,28,16,05,25.60
2016,06,28,16,06,25.70
2016,06,28,16,07,25.80
2016,06,28,16,08,25.80
2016,06,28,16,09,25.80
2016,06,28,16,10,25.70
2016,06,28,16,11,25.70
2016,06,28,16,12,25.80
2016,06,28,16,13,25.90
2016,06,28,16,14,26.00
2016,06,28,16,15,26.10
2016,06,28,16,16,26.10
2016,06,28,16,17,26.10
2016,06,28,16,18,26.00
2016,06,28,16,19,25.80
2016,06,28,16,20,25.60
2016,06,28,16,21,25.60
2016,06,28,16,22,25.50
2016,06,28,16,23,25.40
2016,06,28,16,24,25.30
2016,06,28,16,25,25.30
2016,06,28,16,26,25.30
2016,06,28,16,27,25.20
2016,06,28,16,28,25.10
2016,06,28,16,29,25.10
2016,06,28,16,30,25.00
2016,06,28,16,31,25.00
2016,06,28,16,32,25.00
2016,06,28,16,33,25.10
2016,06,28,16,34,25.10
2016,06,28,16,35,25.00
2016,06,28,16,36,25.00
2016,06,28,16,37,25.10
2016,06,28,16,38,25.10
2016,06,28,16,39,25.10
2016,06,28,16,40,25.10
2016,06,28,16,41,25.20
2016,06,28,16,42,25.20
2016,06,28,16,43,25.20
2016,06,28,16,44,25.10
2016,06,28,16,45,25.20
2016,06,28,16,46,25.30
2016,06,28,16,47,25.30
2016,06,28,16,48,25.40
2016,06,28,16,49,25.30
2016,06,28,16,50,25.30
2016,06,28,16,51,25.30
2016,06,28,16,52,25.30
2016,06,28,16,53,25.30
2016,06,28,16,54,25.30
2016,06,28,16,55,25.40
2016,06,28,16,56,25.40
2016,06,28,16,57,25.40
2016,06,28,16,58,25.40
2016,06,28,16,59,25.40
2016,06,28,17,00,25.40
2016,06,28,17,01,25.40
2016,06,28,17,02,25.40
2016,06,28,17,03,25.30
2016,06,28,17,04,25.40
2016,06,28,17,05,25.40
2016,06,28,17,06,25.50
2016,06,28,17,07,25.60
2016,06,28,17,08,25.60
2016,06,28,17,09,25.60
2016,06,28,17,10,25.60
2016,06,28,17,11,25.60
2016,06,28,17,12,25.60
2016,06,28,17,13,25.60
2016,06,28,17,14,25.60
2016,06,28,17,15,25.60
2016,06,28,17,16,25.60
2016,06,28,17,17,25.60
2016,06,28,17,18,25.70
2016,06,28,17,19,25.70
2016,06,28,17,20,25.80
2016,06,28,17,21,25.80
2016,06,28,17,22,25.70
2016,06,28,17,23,25.60
2016,06,28,17,24,25.60
2016,06,28,17,25,25.50
2016,06,28,17,26,25.50
2016,06,28,17,27,25.60
2016,06,28,17,28,25.60
2016,06,28,17,29,25.70
2016,06,28,17,30,25.70
2016,06,28,17,31,25.70
2016,06,28,17,32,25.70
2016,06,28,17,33,25.70
2016,06,28,17,34,25.70
2016,06,28,17,35,25.60
2016,06,28,17,36,25.60
2016,06,28,17,37,25.60
2016,06,28,17,38,25.60
2016,06,28,17,39,25.50
2016,06,28,17,40,25.40
2016,06,28,17,41,25.30
2016,06,28,17,42,25.30
2016,06,28,17,43,25.20
2016,06,28,17,44,25.20
2016,06,28,17,45,25.20
2016,06,28,17,46,25.10
2016,06,28,17,47,25.00
2016,06,28,17,48,25.00
2016,06,28,17,49,25.00
2016,06,28,17,50,25.10
2016,06,28,17,51,25.10
2016,06,28,17,52,25.20
2016,06,28,17,53,25.20
2016,06,28,17,54,25.10
2016,06,28,17,55,25.10
2016,06,28,17,56,25.20
2016,06,28,17,57,25.10
2016,06,28,17,58,25.10
2016,06,28,17,59,25.10
2016,06,28,18,00,25.10
2016,06,28,18,01,25.00
2016,06,28,18,02,25.00
2016,06,28,18,03,25.00
2016,06,28,18,04,24.90
2016,06,28,18,05,24.80
2016,06,28,18,06,24.80
2016,06,28,18,07,24.70
2016,06,28,18,08,24.50
2016,06,28,18,09,24.50
2016,06,28,18,10,24.40
2016,06,28,18,11,24.40
2016,06,28,18,12,24.40
2016,06,28,18,13,24.40
2016,06,28,18,14,24.40
2016,06,28,18,15,24.30
2016,06,28,18,16,24.30
2016,06,28,18,17,24.30
2016,06,28,18,18,24.30
2016,06,28,18,19,24.30
2016,06,28,18,20,24.30
2016,06,28,18,21,24.30
2016,06,28,18,22,24.40
2016,06,28,18,23,24.40
2016,06,28,18,24,24.50
2016,06,28,18,25,24.40
2016,06,28,18,26,24.50
2016,06,28,18,27,24.50
2016,06,28,18,28,24.40
2016,06,28,18,29,24.30
2016,06,28,18,30,24.30
2016,06,28,18,31,24.30
2016,06,28,18,32,24.30
2016,06,28,18,33,24.30
2016,06,28,18,34,24.30
2016,06,28,18,35,24.20
2016,06,28,18,36,24.20
2016,06,28,18,37,24.20
2016,06,28,18,38,24.10
2016,06,28,18,39,24.10
2016,06,28,18,40,24.10
2016,06,28,18,41,24.10
2016,06,28,18,42,24.10
2016,06,28,18,43,24.10
2016,06,28,18,44,24.10
2016,06,28,18,45,24.00
2016,06,28,18,46,23.90
2016,06,28,18,47,23.90
2016,06,28,18,48,23.90
2016,06,28,18,49,23.90
2016,06,28,18,50,23.80
2016,06,28,18,51,23.70
2016,06,28,18,52,23.70
2016,06,28,18,53,23.60
2016,06,28,18,54,23.50
2016,06,28,18,55,23.40
2016,06,28,18,56,23.30
2016,06,28,18,57,23.30
2016,06,28,18,58,23.20
2016,06,28,18,59,23.20
2016,06,28,19,00,23.20
2016,06,28,19,01,23.10
2016,06,28,19,02,23.00
2016,06,28,19,03,22.90
2016,06,28,19,04,22.90
2016,06,28,19,05,22.90
2016,06,28,19,06,22.90
2016,06,28,19,07,22.90
2016,06,28,19,08,22.80
2016,06,28,19,09,22.80
2016,06,28,19,10,22.70
2016,06,28,19,11,22.70
2016,06,28,19,12,22.80
2016,06,28,19,13,22.80
2016,06,28,19,14,22.80
2016,06,28,19,15,22.80
2016,06,28,19,16,22.80
2016,06,28,19,17,22.80
2016,06,28,19,18,22.80
2016,06,28,19,19,22.80
2016,06,28,19,20,22.80
2016,06,28,19,21,22.80
